Total_Precipitation_Accumulation
1.82 1.81 1.79 1.82 1.96 2.08 2.23 2.49 2.73 2.61 2.30 2.06 2.00 1.92 1.85 1.91 2.09 1.83 1.73 1.71 1.55 1.46 1.44 1.43 1.46 1.52 1.59 1.59 1.61 1.72 1.82 1.97 2.20 2.39 2.58 2.78 2.93 3.07
1.66 1.62 1.58 1.58 1.67 1.72 1.83 2.01 2.31 2.52 2.34 1.96 1.89 1.82 1.80 1.73 1.97 1.76 1.74 1.73 1.48 1.30 1.22 1.20 1.23 1.28 1.32 1.34 1.37 1.41 1.51 1.64 1.83 2.03 2.24 2.46 2.62 2.80
1.46 1.46 1.48 1.53 1.60 1.55 1.62 1.74 1.91 2.15 2.30 2.08 1.94 1.85 1.81 1.84 1.84 1.73 1.63 1.53 1.39 1.31 1.14 1.07 1.06 1.13 1.15 1.16 1.23 1.27 1.31 1.42 1.62 1.80 2.00 2.21 2.39 2.50
1.33 1.38 1.40 1.44 1.51 1.53 1.63 1.73 1.83 2.01 2.15 2.21 2.05 1.91 1.84 1.81 1.83 1.77 1.50 1.36 1.31 1.34 1.17 1.05 0.97 0.95 1.05 1.06 1.08 1.17 1.27 1.36 1.47 1.60 1.76 1.92 2.05 2.15
1.24 1.30 1.35 1.42 1.42 1.47 1.56 1.63 1.75 1.84 2.03 2.13 2.02 1.90 1.84 1.76 1.89 1.76 1.63 1.70 1.40 1.30 1.20 1.10 1.02 0.99 1.20 1.25 1.06 1.06 1.13 1.26 1.33 1.41 1.56 1.68 1.77 1.82
1.10 1.21 1.28 1.33 1.34 1.42 1.46 1.55 1.63 1.82 2.00 2.05 1.93 1.82 1.77 1.79 1.91 1.92 1.83 1.75 1.60 1.28 1.27 1.21 1.14 1.14 1.45 1.96 1.47 1.17 1.13 1.21 1.30 1.35 1.39 1.42 1.43 1.46
1.02 1.08 1.14 1.18 1.19 1.24 1.23 1.36 1.54 1.74 1.85 1.94 1.89 1.84 1.78 1.90 1.91 1.85 1.80 1.78 1.63 1.44 1.43 1.32 1.43 1.68 2.17 2.78 2.30 1.68 1.46 1.34 1.28 1.33 1.34 1.31 1.26 1.21
1.09 1.09 1.02 1.01 0.99 0.94 0.98 1.09 1.28 1.53 1.77 1.89 1.85 1.85 1.82 1.89 1.99 1.98 1.93 1.97 1.92 1.60 1.53 1.47 1.66 2.41 3.03 3.30 2.84 2.01 1.71 1.49 1.36 1.40 1.46 1.41 1.24 1.14
1.12 1.11 0.93 0.85 0.97 0.98 1.00 1.01 1.10 1.23 1.48 1.78 1.88 1.79 1.83 1.93 2.11 2.16 2.09 2.06 2.01 1.77 1.79 1.75 1.91 2.71 2.93 3.05 2.87 2.07 1.76 1.62 1.56 1.63 1.64 1.47 1.26 1.13
0.87 0.96 1.04 1.03 0.97 1.02 1.03 1.13 1.18 1.28 1.35 1.50 1.72 1.68 1.65 1.81 2.02 2.05 2.02 1.98 1.92 1.79 1.80 1.93 2.07 2.56 2.51 2.60 2.63 2.10 1.79 1.66 1.62 1.64 1.59 1.39 1.23 1.11
0.69 0.76 0.84 0.88 0.88 0.95 1.06 1.25 1.31 1.42 1.40 1.56 1.57 1.50 1.51 1.57 1.59 1.71 1.99 2.17 2.07 1.78 1.64 1.77 1.94 2.23 2.29 2.33 2.21 2.01 1.82 1.71 1.60 1.55 1.46 1.24 1.13 1.09
0.75 0.81 0.78 0.70 0.76 0.86 1.06 1.33 1.50 1.55 1.60 1.72 1.68 1.65 1.55 1.52 1.47 1.54 1.90 2.18 2.16 1.93 1.63 1.66 1.76 1.95 2.19 2.14 1.95 1.80 1.83 1.86 1.76 1.67 1.49 1.20 1.00 0.95
0.77 0.85 0.86 0.72 0.66 0.73 0.94 1.18 1.37 1.42 1.67 1.92 1.78 1.60 1.55 1.52 1.49 1.51 1.69 1.85 1.85 1.75 1.51 1.63 1.80 1.88 1.99 2.01 1.93 1.89 1.79 1.78 1.79 1.85 1.73 1.40 1.08 0.88
0.81 0.84 0.84 0.78 0.73 0.80 0.95 1.11 1.24 1.44 1.67 1.80 1.61 1.44 1.35 1.32 1.37 1.34 1.34 1.38 1.45 1.44 1.40 1.55 1.82 1.99 2.00 1.86 1.92 1.90 1.87 1.85 1.82 1.85 1.84 1.67 1.35 1.14
0.72 0.79 0.76 0.72 0.82 1.04 1.16 1.27 1.43 1.66 1.72 1.59 1.46 1.33 1.23 1.26 1.25 1.24 1.24 1.29 1.28 1.15 1.10 1.25 1.57 1.80 1.93 1.89 1.89 1.86 1.94 2.08 2.05 2.01 1.95 1.77 1.54 1.32
0.71 0.85 0.89 0.89 1.05 1.23 1.37 1.46 1.58 1.68 1.55 1.42 1.36 1.25 1.15 1.22 1.26 1.21 1.32 1.37 1.36 1.26 1.17 1.20 1.37 1.63 1.77 1.76 1.87 1.95 1.98 2.31 2.36 2.17 2.14 2.08 1.82 1.55
0.71 0.87 1.01 1.06 1.16 1.30 1.43 1.50 1.55 1.56 1.49 1.36 1.29 1.23 1.17 1.17 1.13 1.09 1.21 1.29 1.33 1.32 1.31 1.28 1.32 1.44 1.54 1.62 1.79 1.90 2.03 2.26 2.36 2.16 2.08 2.18 2.04 1.74
0.75 1.02 1.11 1.10 1.14 1.21 1.33 1.43 1.44 1.42 1.38 1.39 1.38 1.34 1.28 1.18 1.14 1.08 1.10 1.18 1.26 1.24 1.26 1.25 1.24 1.28 1.40 1.50 1.65 1.75 1.80 2.00 2.06 1.93 1.76 1.84 2.02 1.82
0.78 1.01 1.12 1.15 1.18 1.20 1.23 1.29 1.35 1.36 1.30 1.31 1.34 1.29 1.20 1.12 1.09 1.09 1.09 1.16 1.18 1.13 1.07 1.03 1.06 1.15 1.28 1.54 1.64 1.66 1.67 1.71 1.72 1.72 1.62 1.54 1.67 1.66
0.78 0.97 1.08 1.13 1.17 1.20 1.20 1.19 1.24 1.28 1.23 1.19 1.23 1.21 1.14 1.10 1.10 1.12 1.12 1.08 1.08 1.02 0.99 0.94 0.94 1.04 1.18 1.38 1.70 1.82 1.59 1.41 1.38 1.49 1.51 1.48 1.59 1.61
0.75 0.85 0.96 1.04 1.05 1.06 1.11 1.14 1.17 1.21 1.16 1.11 1.15 1.16 1.14 1.11 1.05 0.98 0.95 0.87 0.93 0.97 0.95 0.94 0.92 0.89 0.88 1.01 1.27 1.53 1.59 1.45 1.31 1.30 1.31 1.39 1.44 1.35
0.67 0.77 0.86 0.90 0.90 0.87 0.89 0.93 0.96 0.98 0.98 1.02 1.08 1.05 0.99 0.96 0.89 0.82 0.82 0.84 0.89 0.92 0.89 0.85 0.81 0.83 0.88 1.01 1.16 1.31 1.40 1.28 1.18 1.17 1.14 1.10 1.09 1.14
0.72 0.74 0.78 0.79 0.79 0.77 0.75 0.75 0.79 0.84 0.86 0.89 0.95 0.94 0.87 0.83 0.79 0.73 0.70 0.70 0.71 0.73 0.76 0.80 0.83 0.86 0.88 0.90 0.94 1.03 1.10 1.11 1.03 1.00 1.08 1.08 0.99 1.04